Location: Newark
(7.0858°N, 171.3717°E)
Time: 00:08:06
(UTC+00:00)

CUTE-I - Visible Passes

Search period start: 17 October 2019 00:00
Search period end: 27 October 2019 00:00
Orbit: 810 x 825 km, 98.7° (Epoch: 16 October)

Date Brightness Start Highest point End Pass type
(mag) Time Alt. Az. Time Alt. Az. Time Alt. Az.
17 Oct ? 07:23:24 10° SSW 07:27:23 22° WSW 07:31:20 10° NW visible
18 Oct ? 07:01:07 10° S 07:06:00 38° WSW 07:10:53 10° NW visible
18 Oct ? 17:56:56 10° NE 18:01:28 29° ESE 18:06:02 10° SSE visible
19 Oct ? 06:39:22 10° S 06:44:38 70° WSW 06:49:54 10° NNW visible
19 Oct ? 17:36:55 10° ENE 17:40:07 16° ESE 17:43:18 10° SE visible
21 Oct ? 07:39:01 10° SW 07:41:46 14° W 07:44:31 10° WNW visible
22 Oct ? 07:16:03 10° SSW 07:20:23 26° WSW 07:24:44 10° NW visible
23 Oct ? 06:53:58 10° S 06:59:01 46° WSW 07:04:05 10° NNW visible
23 Oct ? 17:50:16 10° NE 17:54:30 24° ESE 17:58:44 10° SSE visible
24 Oct ? 06:32:22 10° S 06:37:40 84° WSW 06:42:57 10° NNW visible
24 Oct ? 17:30:44 10° ENE 17:33:08 13° E 17:35:32 10° SE visible
26 Oct ? 07:31:21 10° SW 07:34:47 18° W 07:38:12 10° WNW visible
